Kosmos-2385

operational
NORAD ID: 27056 Int'l Des: 2001-058 Owner: KVR Country: RU
LEOCIRCULARPOLAR

About Kosmos-2385

Description loading...

Live Position

Loading 3D Globe...

Upcoming Passes

Altitude History

Altitude vs Time

uPlot chart will show altitude changes over time

Two-Line Element Set

1 27056U 01058B 26062.19344855 -.00000060 00000-0 -40474-3 0 9999
2 27056 82.5355 287.6497 0006942 109.2369 28.8912 12.60562556112422
Epoch: Mar 3, 2026 • Age: 9 hours

Current Status

Altitude 1442.6 km
Velocity 7.14 km/s
Sub-Earth Point -44.60°S, 21.88°W
Launch Date Dec 28, 2001
Age 24.1 years
Type other

Technical Details

Classification Payload
Mass 225.00 kg
Dry Mass 225.00 kg
Total Mass 225.00 kg
Length 1.60 m
Diameter 0.80 m
Span 7.00 m
Shape Cyl + Ant
Manufacturer NPOPMR
Bus Type Strela-3
Phase Status In Orbit
Owner/State KVR/RU

Large Constellations

Loading constellations...